DateTimeUTC,F1_A11,F1_S11,BsB_S11,BsG_S11,BsR_S11,BbsB_S11,BbsG_S11,BbsR_S11,BaB_A11,BaG_A11,BaR_A11,Tu_S11,T_S11,Uu_S11,U_S11,P_S11,T1_A11
2021-04-27T06:00:00Z,00000200,20000000,,,,,,,0000.52,0000.15,-000.09,17.7,24.8,03.3,02.1,0683.5,31.1
2021-04-27T06:01:00Z,00000200,20000000,,,,,,,0000.34,0000.36,0000.42,17.7,24.8,03.4,02.2,0683.5,31.1
2021-04-27T06:02:00Z,00000200,20000000,,,,,,,0000.28,0000.52,0000.30,17.7,24.8,03.4,02.2,0683.5,31.1
2021-04-27T06:03:00Z,00000200,60000000,,,,,,,0001.50,0000.96,0000.95,17.7,24.8,03.4,02.2,0683.5,31.1
2021-04-27T06:04:00Z,00000200,40000000,0000.62,0000.24,-000.35,-000.26,-000.12,0000.02,0000.17,0000.40,0000.10,17.8,24.6,04.4,02.9,0684.4,31.1
2021-04-27T06:05:00Z,00000200,00000000,-000.05,0000.16,0000.28,0000.36,0000.20,-000.13,0000.73,0000.46,0000.74,17.9,24.6,04.6,03.1,0684.5,31.1
2021-04-27T06:06:00Z,00000200,00000000,0000.45,0000.18,0000.01,-000.06,-000.19,-000.30,0000.00,-000.18,0000.00,17.9,24.6,04.7,03.1,0684.4,31.1
2021-04-27T06:07:00Z,00000200,00000000,0000.01,0000.01,-000.07,-000.23,0000.03,-000.07,0000.38,0000.75,0000.18,17.9,24.5,04.7,03.1,0684.4,31.1
2021-04-27T06:08:00Z,00000200,00000000,0000.29,0000.28,-000.22,0000.11,0000.21,0000.02,0000.19,0000.08,0000.35,17.9,24.6,04.8,03.2,0684.4,31.1
2021-04-27T06:09:00Z,00000200,00000000,0000.01,-000.02,-000.08,0000.13,0000.19,-000.07,0000.67,0000.73,0000.40,17.9,24.5,04.9,03.3,0684.4,31.1
2021-04-27T06:10:00Z,00000200,00000000,0000.26,0000.04,0000.00,0000.00,0000.17,-000.02,0000.06,0000.16,-000.03,17.9,24.5,05.0,03.3,0684.4,31.1
2021-04-27T06:11:00Z,00000200,00000000,0000.13,-000.12,-000.11,0000.15,0000.18,0000.06,0000.60,0000.20,0000.72,17.9,24.5,05.2,03.5,0684.3,31.1
2021-04-27T06:12:00Z,00000200,00000000,0000.77,0000.06,-000.09,-000.20,0000.05,0000.28,0000.40,0000.14,0000.01,17.9,24.6,05.3,03.5,0684.3,31.1
2021-04-27T06:13:00Z,00040200,00000000,0000.06,0000.04,0000.43,0000.27,0000.14,0000.32,0000.62,0000.61,0000.73,17.9,24.5,05.5,03.6,0684.3,31.1
2021-04-27T06:14:00Z,00040200,00000000,0000.72,0000.00,-000.17,0000.16,-000.02,-000.08,0000.45,0000.66,0000.21,17.9,24.5,05.6,03.8,0684.3,31.1
2021-04-27T06:15:00Z,00040200,00000000,0000.75,0000.19,0000.10,0000.34,0000.23,0000.22,0000.35,0000.37,0000.03,18.0,24.6,05.7,03.8,0684.3,31.1
2021-04-27T06:16:00Z,00040200,00000000,-000.17,0000.09,0000.25,0000.84,0000.18,0000.10,0000.35,0000.14,0000.58,18.0,24.6,05.7,03.8,0684.3,31.1
2021-04-27T06:17:00Z,00040200,00000000,0000.70,0000.02,0000.30,0000.11,-000.00,-000.06,0000.40,0000.57,0000.09,18.0,24.6,05.9,03.9,0684.3,31.1
2021-04-27T06:18:00Z,00040200,00000000,0000.40,0000.05,0000.13,0000.14,0000.16,0000.17,0000.02,-000.04,-000.08,18.0,24.6,05.9,03.9,0684.3,31.1
2021-04-27T06:19:00Z,00040200,00000000,-000.05,0000.07,0000.20,0000.53,-000.01,-000.09,0000.18,0000.19,0000.44,18.0,24.6,05.8,03.9,0684.3,31.1
2021-04-27T06:20:00Z,00040200,00000000,0000.45,0000.03,-000.16,0000.24,0000.03,-000.03,0000.48,0000.17,0000.31,18.0,24.5,05.8,03.9,0684.3,31.1
2021-04-27T06:21:00Z,00040200,00000000,0000.77,0000.11,0000.04,0000.54,0000.04,-000.31,0000.20,0000.39,-000.31,18.0,24.6,06.0,04.0,0684.3,31.1
2021-04-27T06:22:00Z,00040200,00000000,0000.33,-000.07,0000.13,0000.14,0000.14,-000.06,-000.27,-000.02,0000.21,18.0,24.6,05.9,03.9,0684.3,31.1
2021-04-27T06:23:00Z,00040200,00000000,0000.48,0000.08,0000.03,-000.03,0000.08,-000.13,-000.16,-000.18,0000.15,18.0,24.6,05.8,03.8,0684.3,31.1
2021-04-27T06:24:00Z,00040200,00000000,-000.16,0000.17,0000.14,0000.48,0000.13,-000.08,0000.30,0000.42,0000.14,18.0,24.6,05.7,03.8,0684.3,31.1
2021-04-27T06:25:00Z,00040200,00000000,0000.56,0000.12,0000.28,-000.11,0000.01,0000.42,0000.54,0000.77,0000.33,18.0,24.6,05.8,03.9,0684.3,31.1
2021-04-27T06:26:00Z,00040200,00000000,0000.43,0000.16,0000.13,0001.05,0000.07,-000.18,0000.41,-000.51,-000.00,18.0,24.6,05.9,04.0,0684.3,31.1
2021-04-27T06:27:00Z,00040200,00000000,0001.29,0000.04,-000.12,-000.07,0000.29,0000.32,-000.43,0000.10,-000.11,18.1,24.6,05.8,03.9,0684.3,31.1
2021-04-27T06:28:00Z,00040200,00000000,0000.24,0000.14,0000.07,0000.21,0000.17,0000.06,0000.18,-000.34,0000.11,18.1,24.6,05.6,03.8,0684.3,31.1
2021-04-27T06:29:00Z,00040200,00000000,0000.25,0000.19,0000.02,0000.22,0000.09,-000.01,-000.58,0000.06,-000.45,18.1,24.6,05.7,03.8,0684.3,31.1
2021-04-27T06:30:00Z,00040200,00000000,0000.01,0000.01,-000.08,-000.02,0000.19,0000.14,0000.01,0000.24,0000.23,18.1,24.6,05.5,03.7,0684.3,31.1
2021-04-27T06:31:00Z,00040200,00000000,0000.32,0000.23,0000.23,0000.45,0000.23,0000.20,-000.09,-000.29,-000.29,18.1,24.6,05.5,03.7,0684.4,31.1
2021-04-27T06:32:00Z,00040200,00000000,0000.09,0000.03,0000.21,0000.11,0000.22,0000.28,0000.18,0000.03,0000.42,18.1,24.6,05.3,03.5,0684.4,31.1
2021-04-27T06:33:00Z,00040200,00000000,0000.29,0000.45,0000.26,0000.20,0000.04,0000.04,-000.08,0000.06,-000.26,18.1,24.6,05.2,03.5,0684.4,31.1
2021-04-27T06:34:00Z,00040200,00000000,0001.08,0000.29,0000.06,0000.52,0000.13,0000.08,0000.28,-000.04,0000.19,18.1,24.6,05.2,03.5,0684.4,31.1
2021-04-27T06:35:00Z,00040200,00000000,0001.09,0000.08,0000.26,0000.32,0000.24,-000.02,-000.29,-000.32,-000.18,18.1,24.6,05.1,03.4,0684.4,31.1
2021-04-27T06:36:00Z,00040200,00000000,0001.12,0000.20,0000.29,0000.57,0000.40,-000.04,0000.08,-000.00,-000.13,18.1,24.6,04.8,03.2,0684.4,31.1
2021-04-27T06:37:00Z,00040200,00000000,0001.22,0000.35,0000.16,0000.59,0000.34,-000.27,0000.05,0000.27,0000.34,18.1,24.6,04.8,03.2,0684.4,31.1
2021-04-27T06:38:00Z,00040200,00000000,0000.63,0000.11,0000.10,0000.31,0000.12,0000.20,-000.07,-000.47,-000.67,18.1,24.6,04.6,03.1,0684.3,31.1
2021-04-27T06:39:00Z,00040200,00000000,0000.53,0000.15,-000.09,0000.13,0000.19,0000.12,-000.36,-000.20,0000.42,18.1,24.6,04.5,03.0,0684.4,31.1
2021-04-27T06:40:00Z,00040200,00000000,-000.41,0000.29,-000.25,0000.09,0000.11,0000.20,0000.13,0000.40,-000.25,18.1,24.6,04.3,02.9,0684.4,31.1
2021-04-27T06:41:00Z,00040200,00000000,0000.38,-000.00,-000.12,0000.43,0000.31,0000.03,0000.28,0000.25,0000.16,18.2,24.7,04.3,02.9,0684.4,31.1
2021-04-27T06:42:00Z,00040200,00000000,0000.11,0000.03,0000.05,0000.40,0000.28,-000.09,0000.46,0000.34,0000.21,18.2,24.7,04.3,02.9,0684.3,31.1
2021-04-27T06:43:00Z,00040200,00000000,0001.02,-000.02,0000.11,0000.50,0000.08,-000.04,-000.07,-000.25,0000.12,18.2,24.6,04.4,03.0,0684.3,31.1
2021-04-27T06:44:00Z,00040200,00000000,0000.43,0000.26,0000.20,0000.07,0000.23,0000.23,-000.03,0000.51,-000.01,18.2,24.6,04.4,03.0,0684.3,31.1
2021-04-27T06:45:00Z,00040200,00000000,0000.29,0000.19,0000.02,0000.14,0000.06,0000.38,0000.51,0000.40,0000.09,18.2,24.7,04.4,02.9,0684.4,31.1
2021-04-27T06:46:00Z,00040200,00000000,0000.63,0000.32,0000.02,-000.10,0000.23,0000.10,0000.24,-000.00,0000.52,18.2,24.7,04.5,03.0,0684.4,31.1
2021-04-27T06:47:00Z,00040200,00000000,0000.78,-000.23,0000.06,0000.03,0000.18,0000.05,0000.04,0000.32,0000.16,18.2,24.7,04.4,03.0,0684.4,31.2
2021-04-27T06:48:00Z,00040200,00000000,0000.59,-000.11,0000.13,0000.62,-000.09,0000.00,0000.98,0000.50,0000.40,18.2,24.7,04.6,03.1,0684.4,31.2
2021-04-27T06:49:00Z,00040200,00000000,0000.20,-000.08,0000.24,0000.08,0000.13,0000.14,0000.51,0000.74,0000.22,18.2,24.7,04.7,03.2,0684.4,31.1
2021-04-27T06:50:00Z,00040200,00000000,-000.15,0000.19,0000.18,-000.01,0000.01,0000.14,0000.44,0000.13,0000.35,18.2,24.7,04.9,03.3,0684.4,31.1
2021-04-27T06:51:00Z,00040200,00000000,0000.46,0000.07,-000.06,-000.03,0000.38,0000.06,0000.46,0000.35,0000.42,18.2,24.7,05.1,03.4,0684.4,31.2
2021-04-27T06:52:00Z,00040200,00000000,0000.49,-000.06,0000.12,0000.37,0000.20,0000.25,0000.77,0000.50,0000.79,18.2,24.7,05.1,03.5,0684.4,31.1
2021-04-27T06:53:00Z,00040200,00000000,0000.86,0000.43,-000.27,0000.57,0000.14,0000.17,0000.51,0000.71,0000.16,18.2,24.7,05.3,03.5,0684.4,31.1
2021-04-27T06:54:00Z,00040200,00000000,0000.17,0000.19,-000.02,-000.07,0000.07,0000.21,0000.03,0000.14,0000.40,18.2,24.7,05.5,03.7,0684.4,31.1
2021-04-27T06:55:00Z,00040200,00000000,0001.57,0000.31,0000.22,-000.00,0000.46,0000.13,0000.27,0000.30,-000.01,18.2,24.7,05.5,03.7,0684.4,31.2
2021-04-27T06:56:00Z,00040200,00000000,0001.02,0000.42,0000.18,0000.76,0000.31,0000.10,0000.61,0000.19,0000.21,18.3,24.7,05.5,03.7,0684.4,31.1
2021-04-27T06:57:00Z,00040200,40000000,,,,,,,-000.97,-000.39,-000.59,18.3,24.7,05.8,03.9,0684.4,31.2
2021-04-27T06:58:00Z,00040200,60000000,,,,,,,-000.07,-000.40,-000.21,18.1,24.9,04.9,03.2,0683.4,31.1
2021-04-27T06:59:00Z,00040200,20000000,,,,,,,-000.82,-000.62,-000.51,18.1,25.0,04.8,03.2,0683.4,31.1
